Merced, CA

9:51 PM PDT on October 20, 2017 (GMT -0700)
Merced Municipal-Macready

Weather History for KMCE - August, 2014

Change the Weather History Date:

Wednesday, August 6, 2014

  Actual Average Record
Temperature  
Mean Temperature 82 °F 77 °F  
Max Temperature 94 °F 94 °F 104 °F (2005)
Min Temperature 69 °F 60 °F 52 °F (2002)
Degree Days  
Heating Degree Days 0    
Month to date heating degree days 0  
Since 1 June heating degree days 0  
Since 1 July heating degree days 0  
Cooling Degree Days 17    
Month to date cooling degree days 102  
Year to date cooling degree days 1277  
Since 1 June cooling degree days 1014  
Growing Degree Days 32 (Base 50)    
Moisture  
Dew Point 61 °F    
Average Humidity 56    
Maximum Humidity 84    
Minimum Humidity 28    
Precipitation  
Precipitation 0.00 in 0.00 in 0.00 in (2017)
Month to date precipitation T 0.00  
Year to date precipitation 3.96 8.69  
Since 1 July precipitation T  
Snow  
Snow 0.00 in - - ()
Month to date snowfall 0.0  
Since 1 June snowfall 0.0  
Since 1 July snowfall 0.0  
Snow Depth 0.00 in    
Sea Level Pressure  
Sea Level Pressure 29.93 in    
Wind  
Wind Speed 9 mph (NW)    
Max Wind Speed 16 mph    
Max Gust Speed 21 mph    
Visibility 8 miles    
Events      
T = Trace of Precipitation, MM = Missing Value Source: NWS Daily Summary

Daily Weather History Graph

Daily Weather History Graph

Search for Another Location

Airport or City:

Trip Planner

Search our weather history database for the weather conditions in past years. The results will help you decide how hot, cold, wet, or windy it might be!

Date:

Astronomy

Aug. 06, 2014 Rise Set
Actual Time 6:10 AM PDT 8:04 PM PDT
Civil Twilight 5:42 AM PDT 8:32 PM PDT
Nautical Twilight 5:07 AM PDT 9:07 PM PDT
Astronomical Twilight 4:30 AM PDT 9:43 PM PDT
Moon 4:25 PM PDT (8/6) 1:51 AM PDT (8/6)
Length of Visible Light 14h 50m
Length of Day
13h 53m
Waxing Gibbous, 78% of the Moon is Illuminated
Aug 6
Waxing Gibbous
Aug 10
Full
Aug 17
Last Quarter
Aug 25
New
Sep 2
First Quarter

Hourly Weather History & Observations

Time (PDT) Temp. Heat Index Dew Point Humidity Pressure Visibility Wind Dir Wind Speed Gust Speed Precip Events Conditions
12:53 AM 72.0 °F - 62.1 °F 71% 29.97 in 9.0 mi NNW 10.4 mph - N/A   Clear
1:53 AM 72.0 °F - 63.0 °F 73% 29.96 in 8.0 mi NNW 10.4 mph - N/A   Clear
2:53 AM 71.1 °F - 64.0 °F 78% 29.96 in 6.0 mi NNW 10.4 mph - N/A   Haze
3:53 AM 71.1 °F - 64.0 °F 78% 29.95 in 6.0 mi NNW 10.4 mph - N/A   Haze
4:53 AM 70.0 °F - 64.0 °F 81% 29.95 in 6.0 mi NNW 10.4 mph - N/A   Haze
5:53 AM 70.0 °F - 63.0 °F 78% 29.96 in 6.0 mi NNW 10.4 mph - N/A   Haze
6:53 AM 70.0 °F - 63.0 °F 78% 29.97 in 4.0 mi NW 11.5 mph - N/A   Haze
7:53 AM 72.0 °F - 63.0 °F 73% 29.98 in 5.0 mi NW 10.4 mph - N/A   Haze
8:53 AM 77.0 °F - 62.1 °F 60% 29.98 in 7.0 mi NW 12.7 mph - N/A   Clear
10:53 AM 84.0 °F 84.0 °F 60.1 °F 44% 29.98 in 9.0 mi NNW 10.4 mph - N/A   Clear
12:53 PM 89.1 °F 88.0 °F 57.9 °F 35% 29.96 in 9.0 mi WNW 9.2 mph - N/A   Clear
1:53 PM 91.0 °F 90.2 °F 59.0 °F 34% 29.94 in 10.0 mi WNW 11.5 mph 20.7 mph N/A   Clear
2:53 PM 93.0 °F 91.4 °F 55.9 °F 29% 29.92 in 10.0 mi WNW 12.7 mph 19.6 mph N/A   Clear
3:53 PM 91.9 °F 90.6 °F 57.0 °F 31% 29.90 in 10.0 mi NW 11.5 mph - N/A   Clear
4:53 PM 91.9 °F 90.8 °F 57.9 °F 32% 29.89 in 10.0 mi West 9.2 mph - N/A   Clear
5:16 PM 91.9 °F 91.5 °F 60.1 °F 34% 29.89 in 9.0 mi NNW 11.5 mph - N/A   Clear
5:53 PM 90.0 °F 88.8 °F 57.9 °F 34% 29.88 in 10.0 mi North 12.7 mph - N/A   Clear
6:53 PM 89.1 °F 88.8 °F 60.1 °F 38% 29.88 in 9.0 mi North 11.5 mph - N/A   Clear
7:53 PM 87.1 °F 87.0 °F 61.0 °F 41% 29.88 in 9.0 mi North 9.2 mph - N/A   Clear
8:53 PM 84.0 °F 84.4 °F 61.0 °F 46% 29.89 in 10.0 mi NW 3.5 mph - N/A   Clear
9:53 PM 80.1 °F 81.2 °F 62.1 °F 54% 29.90 in 9.0 mi West 4.6 mph - N/A   Clear
10:53 PM 80.1 °F 80.7 °F 59.0 °F 48% 29.90 in 10.0 mi Calm Calm - N/A   Clear
11:53 PM 75.0 °F - 60.1 °F 60% 29.91 in 9.0 mi WNW 3.5 mph - N/A   Clear